User: anonymous   Login
Location: Unspecified
(0.0000°N, 0.0000°E)
Time: 03:41:37
(UTC+00:00)
Language:

UFO F7 - Orbit

View from above orbital plane
View from above orbital plane
View from above satellite
View from above satellite

Ground track
Ground track

The orbit data is extracted from the following two-line orbital elements,

1 23967U 96042A   17096.61075919 0.00000000  00000-0  00000-0 0    02
2 23967   8.2261  32.3565 0008413 205.5821 154.3874  1.00270000    03
Epoch (UTC): 06 April 2017 14:39:29
Eccentricity: 0.0008413
inclination: 8.2261°
perigee height: 35751 km
apogee height: 35822 km
right ascension of ascending node: 32.3565°
argument of perigee: 205.5821°
revolutions per day: 1.00270000
mean anomaly at epoch: 154.3874°
orbit number at epoch: 0

The dashed part of the orbit path shows where the satellite is in the earth's shadow,  

DLR